Torna al catalogo

SERT 2

AttivoScienzaSSO
NORAD 4327·PAYLOAD·🇺🇸 United States

Lanciato Feb 4, 1970 da Vandenberg Space Force Base

Loading…

Prossimi Passaggi (prossime 24 ore)

TLE

AggiornatoSource: Space-Track

Epoca: Sep 14, 2026, 07:14 UTC

1 04327U 70009A   26257.30183936  .00000018  00000-0  80520-4 0  9995
2 04327  99.2867 190.2385 0005670  49.9412 114.9195 13.58745809805502

Traccia SERT 2 in tempo reale con AllMySat

Download on the App Store